Back to catalog

COSMOS 2251 DEB

AliveLEO
NORAD 33900·DEBRIS·🇷🇺 Russia

Launched Jun 16, 1993 from Plesetsk Cosmodrome

Loading…

Next Passes (next 24 hours)

TLE

FreshSource: Space-Track

Epoch: Sep 14, 2026, 12:56 UTC

1 33900U 93036DD  26257.53949398  .00001234  00000-0  26331-3 0  9996
2 33900  74.0180 193.9159 0049023 275.2150 200.9193 14.59303418930581

Track COSMOS 2251 DEB in real time with AllMySat

Download on the App Store